Date String (YYYY-MM-DD hh:mm:ss) UTC,Instrument flags,absolute air pressure of the measurement (hPa),sample flow rate (lpm),inlet stack bypass flow (lpm),air temperature of the measurement (°C),ambient temperature measured by the external sensor (°C),aerosol sample conditioner tube jacket temperature (°C),OPC LED temperature (°C),internal box temperature (°C),relative humidity of the measurement (%),span deviation,mass concentration of particles derived from Lorenz-Mie calculation of OPC scattering (μg/m³),mass concentration of particles derived from Lorenz-Mie calculation of OPC scattering (μg/m³),mass concentration of particles derived from Lorenz-Mie calculation of OPC scattering (μg/m³)
DateTimeUTC,F1_M11,P_M11,Q1_M11,Q2_M11,T1_M11,T2_M11,T3_M11,T4_M11,T5_M11,U1_M11,ZSPAN_M11,X0_M11,X2_M11,X1_M11
2024-06-11 11:00:00,SystemResetWarning,0831.8,4.99,000.00,031.3,030.6,000.0,039.8,033.0,029.8,0000.0,0010.75,0005.85,0005.02
2024-06-11 11:01:00,SystemResetWarning,0831.9,4.99,000.00,031.3,030.6,000.0,039.8,033.0,029.8,0000.0,0010.48,0005.89,0005.02
2024-06-11 11:02:00,SystemResetWarning,0831.9,5.00,000.00,031.4,030.6,000.0,039.8,033.0,029.8,0000.0,0010.23,0005.92,0005.03
2024-06-11 11:03:00,SystemResetWarning,0831.9,5.01,000.00,031.4,030.6,000.0,039.8,033.0,029.8,0000.0,0010.21,0005.88,0005.04
2024-06-11 11:04:00,SystemResetWarning,0831.9,5.01,000.00,031.4,030.6,000.0,039.8,033.0,029.8,0000.0,0010.40,0005.90,0005.05
2024-06-11 11:05:00,SystemResetWarning,0831.9,5.00,000.00,031.4,030.6,000.0,039.8,033.0,029.8,0000.0,0010.84,0005.91,0005.05
2024-06-11 11:06:00,SystemResetWarning,0831.9,5.00,000.00,031.4,030.6,000.0,039.8,033.0,029.8,0000.0,0011.10,0005.93,0005.05
2024-06-11 11:07:00,SystemResetWarning,0832.0,5.01,000.00,031.4,030.6,000.0,039.8,033.0,029.7,0000.0,0011.12,0005.93,0005.05
2024-06-11 11:08:00,SystemResetWarning,0832.0,5.00,000.00,031.4,030.6,000.0,039.8,033.0,029.7,0000.0,0011.39,0005.93,0005.06
2024-06-11 11:09:00,SystemResetWarning,0832.0,4.99,000.00,031.4,030.6,000.0,039.8,033.0,029.7,0000.0,0011.49,0005.97,0005.06
2024-06-11 11:10:00,SystemResetWarning,0832.0,5.00,000.00,031.4,030.6,000.0,039.8,033.0,029.7,0000.0,0011.52,0005.98,0005.07
2024-06-11 11:11:00,SystemResetWarning,0831.9,5.00,000.00,031.4,030.6,000.0,039.8,033.0,029.6,0000.0,0012.24,0005.95,0005.09
2024-06-11 11:12:00,SystemResetWarning,0832.0,4.99,000.00,031.4,030.6,000.0,039.8,033.0,029.6,0000.0,0012.11,0005.92,0005.10
2024-06-11 11:13:00,SystemResetWarning,0832.0,5.00,000.00,031.4,030.6,000.0,039.8,033.0,029.7,0000.0,0012.18,0005.97,0005.11
2024-06-11 11:14:00,SystemResetWarning,0832.0,5.00,000.00,031.4,030.6,000.0,039.8,033.0,029.7,0000.0,0012.14,0005.99,0005.12
2024-06-11 11:15:00,SystemResetWarning,0832.0,5.00,000.00,031.4,030.6,000.0,039.8,033.0,029.7,0000.0,0011.76,0005.93,0005.12
2024-06-11 11:16:00,SystemResetWarning,0832.0,5.01,000.00,031.4,030.6,000.0,039.8,033.1,029.7,0000.0,0011.52,0005.93,0005.14
2024-06-11 11:17:00,SystemResetWarning,0832.0,5.01,000.00,031.4,030.6,000.0,039.8,033.1,029.6,0000.0,0011.83,0005.94,0005.16
2024-06-11 11:18:00,SystemResetWarning,0832.0,5.00,000.00,031.4,030.6,000.0,039.8,033.1,029.6,0000.0,0012.64,0005.98,0005.17
2024-06-11 11:19:00,SystemResetWarning,0832.0,4.99,000.00,031.4,030.6,000.0,039.8,033.1,029.6,0000.0,0012.06,0005.97,0005.18
2024-06-11 11:20:00,SystemResetWarning,0832.0,4.99,000.00,031.4,030.6,000.0,039.8,033.1,029.7,0000.0,0011.82,0005.98,0005.19
2024-06-11 11:21:00,SystemResetWarning,0832.0,5.00,000.00,031.4,030.6,000.0,039.8,033.1,029.8,0000.0,0011.87,0005.97,0005.19
2024-06-11 11:22:00,SystemResetWarning,0832.0,5.00,000.00,031.4,030.6,000.0,039.8,033.1,029.8,0000.0,0011.34,0006.03,0005.21
2024-06-11 11:23:00,SystemResetWarning,0832.0,5.00,000.00,031.4,030.6,000.0,039.9,033.1,029.7,0000.0,0011.48,0006.06,0005.22
2024-06-11 11:24:00,SystemResetWarning,0832.0,5.01,000.00,031.4,030.6,000.0,039.9,033.1,029.7,0000.0,0011.44,0006.05,0005.24
2024-06-11 11:25:00,SystemResetWarning,0832.1,5.01,000.00,031.4,030.6,000.0,039.8,033.1,029.8,0000.0,0011.52,0006.07,0005.25
2024-06-11 11:26:00,SystemResetWarning,0832.0,5.00,000.00,031.4,030.6,000.0,039.9,033.1,029.7,0000.0,0012.08,0006.11,0005.26
2024-06-11 11:27:00,SystemResetWarning,0832.0,4.99,000.00,031.4,030.6,000.0,039.9,033.1,029.6,0000.0,0012.13,0006.11,0005.27
2024-06-11 11:28:00,SystemResetWarning,0832.0,5.00,000.00,031.4,030.6,000.0,039.9,033.1,029.6,0000.0,0011.58,0006.13,0005.28
2024-06-11 11:29:00,SystemResetWarning,0832.0,5.00,000.00,031.4,030.6,000.0,039.9,033.1,029.6,0000.0,0010.87,0006.13,0005.29
2024-06-11 11:30:00,SystemResetWarning,0832.0,5.01,000.00,031.4,030.6,000.0,039.9,033.1,029.5,0000.0,0011.07,0006.16,0005.29
2024-06-11 11:31:00,SystemResetWarning,0832.0,5.01,000.00,031.4,030.6,000.0,039.9,033.1,029.5,0000.0,0011.36,0006.17,0005.31
2024-06-11 11:32:00,SystemResetWarning,0832.0,5.01,000.00,031.4,030.7,000.0,039.9,033.1,029.5,0000.0,0011.23,0006.17,0005.31
2024-06-11 11:33:00,SystemResetWarning,0832.1,4.98,000.00,031.4,030.7,000.0,039.9,033.1,029.8,0000.0,0011.02,0006.13,0005.32
2024-06-11 11:34:00,SystemResetWarning,0832.0,4.99,000.00,031.4,030.7,000.0,039.9,033.1,029.8,0000.0,0010.87,0006.13,0005.32
2024-06-11 11:35:00,SystemResetWarning,0832.0,5.00,000.00,031.4,030.7,000.0,039.9,033.1,029.7,0000.0,0011.03,0006.16,0005.31
2024-06-11 11:36:00,SystemResetWarning,0832.1,5.01,000.00,031.4,030.7,000.0,039.9,033.1,029.7,0000.0,0011.11,0006.17,0005.31
2024-06-11 11:37:00,SystemResetWarning,0832.1,4.99,000.00,031.4,030.7,000.0,039.9,033.1,029.7,0000.0,0011.34,0006.15,0005.31
2024-06-11 11:38:00,SystemResetWarning,0832.1,4.99,000.00,031.4,030.7,000.0,039.9,033.1,029.6,0000.0,0011.26,0006.17,0005.31
2024-06-11 11:39:00,SystemResetWarning,0832.1,4.99,000.00,031.4,030.7,000.0,039.9,033.1,029.3,0000.0,0011.47,0006.19,0005.32
2024-06-11 11:40:00,SystemResetWarning,0832.1,5.01,000.00,031.4,030.7,000.0,039.9,033.1,029.3,0000.0,0011.53,0006.23,0005.33
2024-06-11 11:41:00,SystemResetWarning,0832.1,5.01,000.00,031.4,030.7,000.0,039.9,033.1,029.5,0000.0,0011.62,0006.25,0005.35
2024-06-11 11:42:00,SystemResetWarning,0832.1,5.00,000.00,031.4,030.7,000.0,039.9,033.1,029.6,0000.0,0011.60,0006.23,0005.35
2024-06-11 11:43:00,SystemResetWarning,0832.1,5.00,000.00,031.4,030.7,000.0,039.9,033.1,029.6,0000.0,0012.10,0006.23,0005.36
2024-06-11 11:44:00,SystemResetWarning,0832.1,5.00,000.00,031.4,030.7,000.0,039.9,033.1,029.7,0000.0,0012.25,0006.27,0005.34
2024-06-11 11:45:00,SystemResetWarning,0832.1,5.00,000.00,031.4,030.7,000.0,039.9,033.1,029.8,0000.0,0012.27,0006.27,0005.34
2024-06-11 11:46:00,SystemResetWarning,0832.2,5.00,000.00,031.4,030.7,000.0,039.9,033.1,029.8,0000.0,0012.47,0006.24,0005.35
2024-06-11 11:47:00,SystemResetWarning,0832.2,5.00,000.00,031.4,030.7,000.0,039.9,033.1,029.8,0000.0,0012.48,0006.25,0005.35
2024-06-11 11:48:00,SystemResetWarning,0832.2,5.00,000.00,031.4,030.7,000.0,039.9,033.1,029.9,0000.0,0011.83,0006.25,0005.36
2024-06-11 11:49:00,SystemResetWarning,0832.2,5.00,000.00,031.4,030.7,000.0,039.9,033.1,029.9,0000.0,0011.97,0006.24,0005.36
2024-06-11 11:50:00,SystemResetWarning,0832.2,5.00,000.00,031.4,030.7,000.0,039.9,033.1,030.0,0000.0,0011.90,0006.24,0005.35
2024-06-11 11:51:00,SystemResetWarning,0832.2,5.01,000.00,031.4,030.7,000.0,039.9,033.1,030.0,0000.0,0011.94,0006.22,0005.34
2024-06-11 11:52:00,SystemResetWarning,0832.2,5.00,000.00,031.4,030.7,000.0,039.9,033.1,030.2,0000.0,0011.95,0006.23,0005.33
2024-06-11 11:53:00,SystemResetWarning,0832.2,5.00,000.00,031.4,030.7,000.0,039.9,033.1,030.1,0000.0,0012.14,0006.28,0005.32
2024-06-11 11:54:00,SystemResetWarning,0832.2,5.00,000.00,031.4,030.7,000.0,039.9,033.1,030.2,0000.0,0011.72,0006.32,0005.31
2024-06-11 11:55:00,SystemResetWarning,0832.2,5.00,000.00,031.4,030.7,000.0,039.9,033.1,030.2,0000.0,0011.50,0006.29,0005.31
2024-06-11 11:56:00,SystemResetWarning,0832.2,5.00,000.00,031.4,030.7,000.0,039.9,033.1,030.2,0000.0,0011.56,0006.33,0005.33
2024-06-11 11:57:00,SystemResetWarning,0832.2,5.00,000.00,031.5,030.7,000.0,039.9,033.1,030.2,0000.0,0011.46,0006.36,0005.32
2024-06-11 11:58:00,SystemResetWarning,0832.2,5.00,000.00,031.5,030.7,000.0,039.9,033.1,030.2,0000.0,0011.37,0006.36,0005.31
2024-06-11 11:59:00,SystemResetWarning,0832.2,5.00,000.00,031.4,030.7,000.0,039.9,033.1,030.2,0000.0,0011.51,0006.38,0005.29
